Location: Newark
(14.6333°N, 90.5000°W)
Time: 11:09:50
(UTC+00:00)

NOAA 19 - Visible Passes

Search period start: 21 January 2020 00:00
Search period end: 31 January 2020 00:00
Orbit: 840 x 862 km, 99.2° (Epoch: 20 January)

Date Brightness Start Highest point End Pass type
(mag) Time Alt. Az. Time Alt. Az. Time Alt. Az.
21 Jan 5.2 11:50:11 10° N 11:55:34 65° WNW 12:00:58 10° SSW visible
22 Jan 5.2 11:38:28 10° NNE 11:43:55 87° W 11:49:23 10° SSW visible
23 Jan 8.5 00:33:57 10° SW 00:36:30 13° W 00:39:05 10° WNW visible
23 Jan 5.5 11:26:50 10° NNE 11:32:15 69° ESE 11:37:41 10° S visible
24 Jan 8.2 00:21:04 10° SW 00:24:48 19° W 00:28:32 10° WNW visible
24 Jan 6.1 11:15:18 10° NNE 11:20:34 50° ESE 11:25:51 10° S visible
25 Jan 7.9 00:08:39 10° SSW 00:13:06 25° W 00:17:33 10° NW visible
25 Jan 6.7 11:03:54 10° NE 11:08:53 37° ESE 11:13:53 10° SSE visible
26 Jan 7.3 10:52:38 10° NE 10:57:12 27° E 11:01:45 10° SSE visible
27 Jan 7.8 10:41:35 10° NE 10:45:30 20° E 10:49:25 10° SSE visible
28 Jan 8.2 10:30:53 10° ENE 10:33:48 15° E 10:36:43 10° SE visible
29 Jan 8.5 10:21:52 10° E 10:22:05 10° E 10:22:18 10° ESE visible
29 Jan 5.3 11:57:22 10° N 12:02:41 55° WNW 12:08:01 10° SSW visible
30 Jan 5.1 11:45:35 10° N 11:51:02 76° WNW 11:56:30 10° SSW visible
